Upstream stations:
Downstream station:
SHEF ID: MBLT2 Wichita Rv nr Mabelle, TX
STATION TYPE:
STAGE RIV-FLOW BAT-LOAD
ft cfs volt
Ccp-Rev Ccp-Rev Ccp-Rev
(US/Central)
07/05 00:00 1.15 1 12.65
07/05 01:00 1.13 1 12.57
07/05 02:00 1.13 1 12.57
07/05 03:00 1.13 1 12.57
07/05 04:00 1.15 1 12.57
07/05 05:00 1.17 1 12.49
07/05 06:00 1.13 1 12.49
07/05 07:00 1.16 1 12.49
07/05 08:00 1.20 2 12.57
07/05 09:00 1.15 1 12.73
07/05 10:00 1.15 1 12.97
07/05 11:00 1.14 1 13.05
07/05 12:00 1.12 1 13.05
07/05 13:00 1.14 1 12.97
07/05 14:00 1.12 1 12.89
07/05 15:00 1.10 1 12.89
07/05 16:00 1.17 1 12.89
07/05 17:00 1.11 1 12.89
07/05 18:00 1.17 1 12.89
07/05 19:00 1.15 1 12.89
07/05 20:00 1.17 1 12.81
07/05 21:00 1.17 1 12.65
07/05 22:00 1.17 1 12.65
07/05 23:00 ---- ---- ----